GEFSGL_prec_meanprec_366.txt.gz
QPF
0.01 0.01 0.01 0.01 0.01 0.01 0.01 0.01 0.02 0.02 0.03 0.04 0.04 0.05 0.06 0.08 0.08 0.08 0.05 0.03 0.04 0.04 0.04 0.04 0.05 0.05 0.04 0.04 0.04 0.03 0.02 0.02 0.03 0.02 0.02 0.03 0.06 0.07 0.05 0.03 0.02 0.01 0.01
0.01 0.01 0.01 0.01 0.01 0.01 0.01 0.01 0.01 0.02 0.03 0.03 0.02 0.02 0.03 0.04 0.04 0.04 0.03 0.04 0.04 0.04 0.04 0.04 0.04 0.04 0.05 0.04 0.03 0.03 0.02 0.03 0.03 0.02 0.02 0.03 0.05 0.06 0.07 0.06 0.03 0.01 0.01
0.00 0.01 0.01 0.01 0.01 0.01 0.01 0.01 0.01 0.02 0.02 0.02 0.03 0.02 0.03 0.03 0.03 0.03 0.04 0.04 0.04 0.04 0.04 0.04 0.04 0.05 0.04 0.03 0.02 0.02 0.02 0.03 0.04 0.04 0.03 0.03 0.03 0.04 0.04 0.04 0.04 0.03 0.01
0.01 0.01 0.02 0.01 0.01 0.01 0.01 0.01 0.02 0.03 0.03 0.03 0.02 0.02 0.03 0.04 0.04 0.04 0.04 0.04 0.04 0.04 0.03 0.03 0.03 0.04 0.04 0.04 0.03 0.03 0.03 0.03 0.04 0.04 0.03 0.03 0.03 0.03 0.03 0.02 0.02 0.02 0.01
0.02 0.02 0.02 0.02 0.02 0.01 0.01 0.01 0.02 0.03 0.04 0.03 0.03 0.02 0.03 0.03 0.03 0.04 0.04 0.05 0.05 0.04 0.04 0.03 0.03 0.04 0.03 0.04 0.03 0.04 0.04 0.04 0.03 0.03 0.03 0.03 0.03 0.03 0.03 0.02 0.02 0.02 0.02
0.02 0.02 0.02 0.02 0.02 0.01 0.01 0.01 0.02 0.03 0.04 0.03 0.03 0.03 0.03 0.02 0.03 0.04 0.05 0.06 0.06 0.06 0.06 0.07 0.06 0.05 0.05 0.04 0.04 0.05 0.04 0.04 0.03 0.03 0.03 0.02 0.02 0.03 0.03 0.02 0.02 0.03 0.02
0.02 0.01 0.02 0.02 0.02 0.02 0.02 0.02 0.02 0.03 0.03 0.03 0.03 0.03 0.03 0.03 0.03 0.03 0.03 0.05 0.06 0.07 0.07 0.07 0.06 0.06 0.06 0.05 0.04 0.03 0.03 0.03 0.03 0.03 0.03 0.03 0.03 0.03 0.03 0.02 0.02 0.02 0.02
0.01 0.01 0.01 0.01 0.02 0.02 0.02 0.03 0.04 0.03 0.03 0.04 0.04 0.04 0.03 0.03 0.03 0.02 0.02 0.02 0.04 0.04 0.04 0.04 0.05 0.05 0.05 0.04 0.04 0.04 0.03 0.03 0.03 0.03 0.03 0.03 0.03 0.04 0.04 0.03 0.03 0.02 0.02
0.01 0.01 0.02 0.02 0.03 0.03 0.03 0.04 0.05 0.04 0.04 0.04 0.04 0.03 0.03 0.03 0.02 0.01 0.01 0.02 0.02 0.03 0.02 0.03 0.03 0.03 0.03 0.03 0.02 0.03 0.03 0.03 0.03 0.02 0.02 0.02 0.02 0.02 0.03 0.04 0.03 0.03 0.02
0.00 0.01 0.02 0.04 0.05 0.06 0.07 0.07 0.06 0.04 0.04 0.03 0.03 0.02 0.02 0.02 0.02 0.01 0.01 0.02 0.02 0.02 0.02 0.02 0.02 0.02 0.03 0.03 0.02 0.02 0.02 0.03 0.03 0.03 0.02 0.02 0.02 0.02 0.02 0.02 0.03 0.03 0.02
0.00 0.01 0.01 0.03 0.03 0.05 0.07 0.06 0.05 0.05 0.04 0.03 0.02 0.01 0.01 0.02 0.02 0.01 0.01 0.01 0.02 0.02 0.01 0.01 0.01 0.01 0.01 0.01 0.02 0.02 0.02 0.02 0.03 0.03 0.02 0.02 0.03 0.03 0.03 0.02 0.02 0.03 0.04
0.01 0.01 0.01 0.01 0.01 0.02 0.04 0.04 0.04 0.04 0.03 0.02 0.01 0.01 0.01 0.02 0.02 0.01 0.01 0.01 0.02 0.02 0.01 0.01 0.01 0.01 0.00 0.01 0.01 0.01 0.02 0.01 0.01 0.01 0.02 0.02 0.03 0.02 0.02 0.02 0.03 0.04 0.04
0.01 0.01 0.01 0.01 0.01 0.01 0.02 0.02 0.02 0.02 0.01 0.01 0.01 0.01 0.01 0.01 0.01 0.01 0.01 0.01 0.01 0.01 0.01 0.01 0.01 0.01 0.00 0.00 0.00 0.01 0.01 0.02 0.01 0.01 0.02 0.02 0.03 0.03 0.03 0.04 0.04 0.05 0.05
0.01 0.01 0.01 0.02 0.02 0.02 0.03 0.03 0.03 0.03 0.02 0.01 0.02 0.01 0.01 0.01 0.01 0.01 0.01 0.01 0.01 0.01 0.01 0.01 0.01 0.01 0.01 0.01 0.01 0.01 0.01 0.02 0.02 0.02 0.03 0.04 0.05 0.05 0.06 0.06 0.06 0.05 0.05
0.01 0.01 0.02 0.03 0.04 0.04 0.03 0.03 0.03 0.02 0.02 0.02 0.01 0.01 0.01 0.01 0.01 0.02 0.02 0.02 0.01 0.01 0.01 0.01 0.01 0.01 0.01 0.02 0.02 0.01 0.01 0.01 0.01 0.02 0.03 0.04 0.05 0.05 0.06 0.07 0.08 0.07 0.07
0.01 0.01 0.02 0.03 0.04 0.03 0.03 0.03 0.02 0.01 0.01 0.01 0.01 0.01 0.01 0.01 0.02 0.02 0.02 0.02 0.02 0.02 0.01 0.01 0.02 0.02 0.02 0.02 0.02 0.02 0.02 0.02 0.02 0.02 0.03 0.04 0.05 0.06 0.07 0.08 0.09 0.10 0.11
0.02 0.02 0.02 0.02 0.02 0.02 0.02 0.02 0.01 0.01 0.01 0.00 0.00 0.00 0.01 0.01 0.00 0.01 0.01 0.02 0.02 0.02 0.01 0.01 0.02 0.02 0.02 0.03 0.03 0.03 0.03 0.03 0.03 0.03 0.02 0.02 0.03 0.04 0.05 0.06 0.08 0.09 0.10
0.03 0.02 0.02 0.03 0.03 0.03 0.02 0.02 0.01 0.01 0.01 0.00 0.00 0.00 0.01 0.01 0.00 0.01 0.01 0.01 0.01 0.01 0.01 0.01 0.02 0.02 0.02 0.02 0.02 0.02 0.03 0.03 0.03 0.03 0.02 0.02 0.02 0.03 0.03 0.04 0.06 0.08 0.09
0.02 0.02 0.02 0.03 0.03 0.04 0.03 0.02 0.02 0.01 0.01 0.01 0.01 0.01 0.01 0.01 0.01 0.01 0.01 0.01 0.01 0.01 0.01 0.02 0.02 0.02 0.02 0.01 0.01 0.02 0.02 0.03 0.03 0.03 0.02 0.03 0.03 0.03 0.03 0.03 0.03 0.05 0.07
0.06 0.05 0.04 0.04 0.04 0.04 0.04 0.04 0.03 0.02 0.02 0.02 0.01 0.01 0.01 0.01 0.01 0.01 0.01 0.01 0.01 0.01 0.01 0.02 0.02 0.02 0.01 0.01 0.02 0.02 0.02 0.03 0.03 0.03 0.03 0.03 0.02 0.02 0.02 0.02 0.02 0.03 0.04
0.03 0.04 0.04 0.03 0.03 0.03 0.03 0.03 0.02 0.02 0.02 0.01 0.01 0.01 0.01 0.01 0.01 0.01 0.01 0.02 0.02 0.01 0.02 0.02 0.02 0.02 0.02 0.02 0.02 0.02 0.02 0.03 0.02 0.02 0.02 0.03 0.02 0.02 0.01 0.02 0.03 0.03 0.04
0.00 0.01 0.01 0.01 0.01 0.01 0.01 0.01 0.01 0.01 0.01 0.01 0.01 0.01 0.01 0.01 0.01 0.02 0.02 0.02 0.02 0.02 0.02 0.01 0.01 0.01 0.01 0.01 0.01 0.01 0.02 0.02 0.03 0.04 0.03 0.03 0.03 0.04 0.03 0.03 0.03 0.04 0.04
0.01 0.01 0.01 0.01 0.01 0.00 0.00 0.00 0.00 0.01 0.01 0.01 0.01 0.01 0.01 0.01 0.02 0.03 0.03 0.03 0.02 0.02 0.01 0.01 0.01 0.01 0.01 0.02 0.02 0.02 0.03 0.03 0.04 0.04 0.04 0.04 0.04 0.04 0.04 0.03 0.03 0.03 0.03
0.02 0.02 0.01 0.01 0.01 0.01 0.01 0.01 0.01 0.01 0.01 0.01 0.01 0.01 0.02 0.01 0.02 0.02 0.02 0.02 0.02 0.02 0.02 0.02 0.02 0.02 0.03 0.03 0.03 0.04 0.04 0.04 0.03 0.03 0.03 0.04 0.04 0.03 0.02 0.03 0.03 0.03 0.04
0.02 0.02 0.01 0.01 0.01 0.01 0.01 0.01 0.01 0.02 0.02 0.02 0.01 0.02 0.02 0.02 0.02 0.01 0.01 0.01 0.01 0.02 0.02 0.02 0.02 0.03 0.04 0.04 0.03 0.03 0.04 0.04 0.04 0.04 0.04 0.05 0.04 0.04 0.04 0.04 0.03 0.04 0.04
0.01 0.01 0.01 0.01 0.01 0.01 0.01 0.01 0.02 0.02 0.02 0.02 0.02 0.02 0.02 0.02 0.02 0.01 0.01 0.01 0.01 0.02 0.02 0.02 0.03 0.03 0.03 0.03 0.02 0.02 0.03 0.03 0.03 0.04 0.05 0.05 0.05 0.05 0.05 0.05 0.04 0.04 0.05

GEFSGL_prec_meanprec_372.txt.gz
QPF
0.07 0.07 0.04 0.02 0.01 0.02 0.02 0.02 0.02 0.03 0.05 0.09 0.08 0.05 0.04 0.03 0.03 0.03 0.04 0.04 0.04 0.04 0.05 0.06 0.05 0.05 0.06 0.06 0.06 0.05 0.04 0.04 0.04 0.03 0.03 0.02 0.03 0.03 0.05 0.06 0.05 0.04 0.03
0.03 0.03 0.02 0.01 0.01 0.01 0.02 0.02 0.02 0.02 0.03 0.04 0.04 0.02 0.02 0.02 0.03 0.03 0.03 0.04 0.04 0.05 0.05 0.06 0.06 0.05 0.05 0.05 0.06 0.06 0.05 0.04 0.04 0.03 0.02 0.03 0.03 0.03 0.05 0.07 0.07 0.06 0.05
0.01 0.01 0.00 0.01 0.01 0.01 0.02 0.02 0.02 0.02 0.02 0.02 0.03 0.03 0.03 0.03 0.03 0.04 0.04 0.03 0.03 0.04 0.06 0.06 0.05 0.05 0.05 0.05 0.05 0.04 0.04 0.03 0.03 0.03 0.02 0.02 0.02 0.03 0.05 0.05 0.06 0.08 0.06
0.01 0.00 0.01 0.01 0.01 0.02 0.02 0.01 0.01 0.02 0.02 0.03 0.03 0.04 0.04 0.03 0.03 0.03 0.03 0.03 0.03 0.03 0.05 0.06 0.06 0.06 0.05 0.06 0.06 0.05 0.04 0.04 0.04 0.03 0.02 0.02 0.03 0.03 0.04 0.04 0.04 0.05 0.05
0.01 0.01 0.01 0.02 0.02 0.02 0.02 0.02 0.02 0.02 0.03 0.04 0.04 0.04 0.04 0.03 0.02 0.02 0.02 0.02 0.03 0.03 0.04 0.04 0.05 0.06 0.06 0.06 0.05 0.04 0.04 0.04 0.04 0.04 0.04 0.04 0.04 0.05 0.04 0.04 0.04 0.04 0.05
0.01 0.01 0.02 0.03 0.02 0.02 0.02 0.02 0.03 0.03 0.04 0.05 0.05 0.05 0.04 0.03 0.03 0.02 0.02 0.04 0.05 0.05 0.06 0.06 0.06 0.06 0.05 0.04 0.03 0.04 0.05 0.05 0.06 0.06 0.06 0.06 0.06 0.06 0.05 0.05 0.04 0.04 0.04
0.02 0.02 0.03 0.03 0.04 0.04 0.03 0.03 0.02 0.02 0.02 0.03 0.03 0.04 0.04 0.06 0.04 0.03 0.03 0.03 0.04 0.05 0.06 0.06 0.06 0.05 0.05 0.05 0.05 0.04 0.04 0.04 0.04 0.05 0.05 0.05 0.06 0.07 0.07 0.06 0.05 0.04 0.04
0.02 0.02 0.04 0.04 0.04 0.04 0.03 0.03 0.03 0.03 0.03 0.03 0.04 0.04 0.05 0.05 0.04 0.03 0.03 0.04 0.06 0.06 0.06 0.06 0.07 0.07 0.06 0.05 0.05 0.04 0.03 0.03 0.03 0.02 0.03 0.03 0.04 0.06 0.06 0.06 0.06 0.04 0.03
0.03 0.04 0.04 0.04 0.03 0.03 0.03 0.03 0.03 0.03 0.04 0.04 0.04 0.04 0.04 0.04 0.04 0.03 0.02 0.04 0.05 0.06 0.06 0.06 0.06 0.07 0.08 0.07 0.05 0.04 0.04 0.04 0.03 0.03 0.02 0.02 0.02 0.02 0.03 0.04 0.04 0.04 0.03
0.02 0.03 0.03 0.03 0.03 0.03 0.03 0.03 0.03 0.04 0.04 0.05 0.04 0.04 0.04 0.04 0.04 0.04 0.03 0.04 0.05 0.05 0.06 0.06 0.06 0.06 0.07 0.05 0.04 0.04 0.03 0.04 0.04 0.04 0.03 0.03 0.02 0.02 0.03 0.03 0.04 0.04 0.04
0.04 0.04 0.04 0.04 0.04 0.03 0.04 0.03 0.03 0.04 0.04 0.05 0.05 0.04 0.03 0.03 0.04 0.04 0.04 0.05 0.04 0.05 0.05 0.05 0.04 0.03 0.02 0.02 0.03 0.04 0.03 0.04 0.04 0.03 0.02 0.02 0.02 0.02 0.02 0.02 0.03 0.04 0.04
0.04 0.04 0.04 0.04 0.04 0.04 0.04 0.04 0.04 0.04 0.04 0.05 0.05 0.04 0.03 0.03 0.03 0.03 0.03 0.05 0.05 0.04 0.04 0.04 0.04 0.03 0.02 0.02 0.02 0.02 0.03 0.03 0.03 0.02 0.02 0.02 0.02 0.01 0.02 0.02 0.03 0.04 0.03
0.04 0.04 0.04 0.04 0.05 0.05 0.04 0.03 0.04 0.04 0.04 0.05 0.06 0.07 0.06 0.04 0.03 0.03 0.02 0.03 0.04 0.04 0.03 0.02 0.03 0.04 0.03 0.02 0.03 0.02 0.02 0.02 0.02 0.02 0.01 0.01 0.02 0.02 0.02 0.02 0.03 0.03 0.04
0.04 0.04 0.04 0.03 0.04 0.05 0.05 0.03 0.03 0.03 0.03 0.03 0.03 0.04 0.04 0.03 0.02 0.02 0.02 0.02 0.03 0.03 0.03 0.03 0.03 0.02 0.02 0.01 0.02 0.02 0.02 0.02 0.02 0.03 0.02 0.02 0.02 0.03 0.03 0.03 0.03 0.03 0.04
0.05 0.04 0.04 0.04 0.04 0.05 0.04 0.03 0.03 0.02 0.02 0.02 0.02 0.01 0.01 0.01 0.01 0.01 0.01 0.01 0.02 0.01 0.01 0.01 0.02 0.03 0.03 0.03 0.03 0.03 0.03 0.03 0.03 0.02 0.02 0.02 0.03 0.03 0.04 0.03 0.03 0.04 0.05
0.05 0.05 0.04 0.03 0.03 0.03 0.04 0.04 0.05 0.05 0.04 0.03 0.03 0.01 0.01 0.00 0.00 0.01 0.01 0.01 0.01 0.01 0.01 0.01 0.02 0.03 0.04 0.04 0.04 0.05 0.05 0.05 0.04 0.04 0.04 0.04 0.04 0.04 0.05 0.05 0.06 0.07 0.07
0.07 0.05 0.03 0.03 0.03 0.04 0.04 0.04 0.04 0.04 0.04 0.04 0.03 0.02 0.01 0.01 0.01 0.01 0.01 0.01 0.01 0.01 0.00 0.01 0.02 0.02 0.03 0.04 0.04 0.04 0.04 0.05 0.05 0.06 0.06 0.06 0.05 0.05 0.05 0.06 0.07 0.08 0.08
0.06 0.04 0.03 0.02 0.02 0.02 0.02 0.02 0.02 0.03 0.03 0.02 0.03 0.03 0.02 0.02 0.02 0.01 0.01 0.01 0.01 0.01 0.01 0.01 0.02 0.03 0.04 0.04 0.04 0.05 0.05 0.04 0.04 0.05 0.06 0.06 0.05 0.05 0.05 0.05 0.06 0.08 0.08
0.04 0.03 0.02 0.01 0.01 0.01 0.02 0.02 0.02 0.03 0.03 0.03 0.02 0.03 0.04 0.03 0.03 0.03 0.03 0.03 0.03 0.03 0.03 0.03 0.04 0.04 0.04 0.04 0.04 0.04 0.04 0.04 0.03 0.02 0.03 0.03 0.03 0.04 0.04 0.05 0.06 0.07 0.07
0.04 0.03 0.02 0.02 0.01 0.01 0.02 0.04 0.06 0.06 0.06 0.06 0.06 0.05 0.05 0.05 0.05 0.05 0.05 0.05 0.05 0.04 0.03 0.03 0.03 0.03 0.03 0.05 0.06 0.05 0.04 0.05 0.04 0.03 0.03 0.04 0.04 0.05 0.06 0.06 0.06 0.08 0.09
0.05 0.03 0.03 0.02 0.02 0.02 0.02 0.03 0.04 0.05 0.06 0.06 0.06 0.06 0.06 0.05 0.05 0.05 0.05 0.05 0.04 0.04 0.03 0.03 0.02 0.01 0.02 0.02 0.02 0.03 0.03 0.03 0.03 0.03 0.03 0.04 0.05 0.05 0.05 0.06 0.07 0.08 0.08
0.03 0.02 0.02 0.02 0.02 0.02 0.02 0.02 0.02 0.03 0.03 0.04 0.05 0.04 0.03 0.03 0.03 0.03 0.03 0.03 0.03 0.03 0.03 0.03 0.02 0.01 0.02 0.02 0.02 0.02 0.02 0.02 0.02 0.03 0.03 0.03 0.04 0.03 0.03 0.03 0.04 0.06 0.07
0.02 0.01 0.01 0.01 0.01 0.01 0.01 0.01 0.01 0.01 0.01 0.02 0.02 0.03 0.02 0.02 0.03 0.03 0.03 0.02 0.01 0.01 0.02 0.02 0.02 0.02 0.02 0.03 0.02 0.02 0.03 0.04 0.04 0.04 0.04 0.03 0.03 0.03 0.02 0.02 0.03 0.04 0.06
0.01 0.01 0.01 0.01 0.01 0.01 0.01 0.01 0.00 0.00 0.01 0.01 0.02 0.03 0.03 0.04 0.05 0.04 0.03 0.01 0.01 0.01 0.01 0.01 0.02 0.02 0.03 0.02 0.02 0.02 0.02 0.02 0.03 0.03 0.04 0.03 0.03 0.03 0.02 0.02 0.03 0.04 0.06
0.01 0.01 0.01 0.01 0.02 0.02 0.01 0.01 0.00 0.01 0.01 0.02 0.02 0.02 0.03 0.03 0.04 0.04 0.03 0.02 0.02 0.02 0.01 0.01 0.02 0.02 0.02 0.01 0.01 0.01 0.01 0.02 0.01 0.02 0.03 0.03 0.02 0.02 0.02 0.02 0.02 0.04 0.06
0.01 0.01 0.01 0.01 0.01 0.01 0.01 0.01 0.01 0.01 0.01 0.01 0.01 0.01 0.01 0.02 0.02 0.02 0.01 0.01 0.01 0.02 0.02 0.01 0.01 0.01 0.01 0.01 0.01 0.01 0.01 0.01 0.02 0.02 0.03 0.03 0.03 0.03 0.02 0.02 0.03 0.04 0.05

GEFSGL_prec_meanprec_378.txt.gz
QPF
0.05 0.05 0.07 0.05 0.03 0.03 0.03 0.03 0.03 0.02 0.01 0.01 0.01 0.02 0.02 0.02 0.02 0.03 0.03 0.02 0.03 0.03 0.02 0.02 0.02 0.03 0.02 0.02 0.03 0.05 0.06 0.06 0.04 0.03 0.04 0.04 0.05 0.06 0.06 0.05 0.05 0.07 0.07
0.13 0.09 0.05 0.04 0.04 0.04 0.03 0.03 0.03 0.02 0.01 0.01 0.03 0.03 0.03 0.03 0.03 0.03 0.03 0.03 0.03 0.03 0.03 0.03 0.03 0.03 0.02 0.02 0.03 0.04 0.05 0.06 0.05 0.04 0.04 0.04 0.03 0.06 0.07 0.04 0.04 0.05 0.07
0.07 0.08 0.04 0.04 0.05 0.04 0.04 0.03 0.03 0.02 0.02 0.02 0.03 0.03 0.03 0.03 0.03 0.04 0.03 0.03 0.03 0.02 0.02 0.03 0.02 0.03 0.02 0.03 0.03 0.05 0.06 0.06 0.06 0.05 0.04 0.04 0.03 0.02 0.03 0.03 0.03 0.03 0.04
0.08 0.06 0.05 0.05 0.04 0.04 0.03 0.03 0.03 0.03 0.03 0.03 0.04 0.04 0.05 0.04 0.04 0.04 0.04 0.03 0.02 0.02 0.01 0.01 0.01 0.03 0.03 0.04 0.05 0.05 0.05 0.06 0.08 0.06 0.05 0.05 0.05 0.03 0.03 0.02 0.02 0.01 0.02
0.07 0.06 0.05 0.04 0.03 0.02 0.02 0.03 0.02 0.03 0.04 0.05 0.05 0.05 0.04 0.05 0.05 0.05 0.04 0.03 0.02 0.02 0.02 0.01 0.01 0.02 0.03 0.05 0.06 0.06 0.08 0.09 0.09 0.08 0.08 0.08 0.08 0.07 0.04 0.03 0.02 0.03 0.03
0.05 0.05 0.04 0.04 0.03 0.01 0.02 0.03 0.03 0.03 0.04 0.04 0.04 0.04 0.04 0.04 0.04 0.04 0.04 0.03 0.03 0.03 0.03 0.02 0.02 0.02 0.02 0.03 0.04 0.05 0.06 0.09 0.11 0.12 0.11 0.10 0.10 0.08 0.07 0.06 0.04 0.03 0.03
0.03 0.04 0.04 0.03 0.03 0.02 0.03 0.03 0.04 0.04 0.05 0.05 0.04 0.03 0.04 0.04 0.04 0.04 0.05 0.04 0.04 0.04 0.03 0.02 0.03 0.02 0.03 0.03 0.03 0.04 0.03 0.04 0.05 0.06 0.06 0.06 0.07 0.07 0.08 0.07 0.05 0.03 0.02
0.04 0.04 0.04 0.03 0.02 0.03 0.03 0.03 0.03 0.04 0.05 0.04 0.03 0.03 0.04 0.02 0.03 0.04 0.05 0.05 0.05 0.04 0.04 0.03 0.03 0.02 0.02 0.04 0.04 0.03 0.03 0.03 0.03 0.03 0.02 0.03 0.03 0.05 0.06 0.07 0.06 0.03 0.02
0.05 0.04 0.03 0.03 0.02 0.02 0.02 0.03 0.03 0.03 0.03 0.03 0.03 0.03 0.03 0.02 0.03 0.03 0.05 0.05 0.05 0.04 0.05 0.03 0.03 0.03 0.04 0.05 0.04 0.03 0.03 0.03 0.03 0.03 0.02 0.02 0.03 0.03 0.03 0.04 0.03 0.02 0.02
0.03 0.03 0.04 0.04 0.03 0.03 0.03 0.03 0.03 0.04 0.04 0.03 0.02 0.02 0.02 0.02 0.02 0.03 0.05 0.06 0.05 0.04 0.05 0.05 0.03 0.03 0.04 0.05 0.04 0.04 0.03 0.04 0.05 0.05 0.04 0.04 0.03 0.02 0.02 0.02 0.03 0.03 0.02
0.05 0.05 0.05 0.04 0.04 0.03 0.03 0.03 0.03 0.03 0.04 0.03 0.02 0.02 0.01 0.01 0.02 0.02 0.03 0.04 0.04 0.04 0.04 0.03 0.03 0.03 0.04 0.03 0.03 0.03 0.03 0.05 0.07 0.07 0.07 0.05 0.03 0.02 0.02 0.01 0.02 0.03 0.03
0.09 0.07 0.05 0.04 0.04 0.03 0.02 0.02 0.04 0.04 0.03 0.03 0.03 0.03 0.03 0.03 0.03 0.02 0.03 0.03 0.03 0.03 0.03 0.03 0.04 0.04 0.04 0.04 0.04 0.03 0.04 0.04 0.04 0.04 0.04 0.04 0.03 0.02 0.02 0.02 0.01 0.02 0.02
0.09 0.07 0.04 0.03 0.04 0.03 0.02 0.02 0.03 0.04 0.03 0.03 0.03 0.03 0.04 0.06 0.05 0.03 0.03 0.04 0.05 0.04 0.03 0.04 0.05 0.04 0.04 0.04 0.04 0.04 0.04 0.04 0.03 0.03 0.03 0.03 0.03 0.02 0.02 0.01 0.01 0.02 0.03
0.06 0.06 0.04 0.04 0.04 0.04 0.03 0.03 0.03 0.04 0.03 0.03 0.03 0.03 0.04 0.05 0.04 0.03 0.03 0.03 0.03 0.04 0.04 0.04 0.04 0.05 0.06 0.06 0.04 0.03 0.02 0.02 0.02 0.02 0.02 0.02 0.02 0.03 0.03 0.03 0.04 0.04 0.05
0.04 0.04 0.03 0.03 0.04 0.04 0.04 0.03 0.03 0.04 0.03 0.03 0.04 0.04 0.04 0.04 0.03 0.03 0.03 0.02 0.02 0.02 0.01 0.02 0.02 0.03 0.03 0.03 0.03 0.03 0.02 0.02 0.02 0.02 0.02 0.02 0.03 0.03 0.03 0.03 0.04 0.05 0.04
0.07 0.06 0.05 0.05 0.05 0.06 0.06 0.04 0.03 0.04 0.05 0.04 0.05 0.07 0.06 0.04 0.04 0.04 0.04 0.03 0.02 0.02 0.01 0.01 0.02 0.02 0.02 0.01 0.01 0.01 0.02 0.02 0.02 0.02 0.01 0.02 0.02 0.02 0.02 0.03 0.03 0.04 0.05
0.10 0.07 0.06 0.06 0.05 0.06 0.07 0.05 0.03 0.03 0.04 0.04 0.05 0.07 0.09 0.10 0.09 0.07 0.05 0.04 0.03 0.02 0.01 0.01 0.01 0.02 0.01 0.01 0.01 0.01 0.01 0.01 0.01 0.01 0.01 0.01 0.01 0.02 0.02 0.02 0.03 0.04 0.04
0.07 0.06 0.06 0.05 0.04 0.03 0.03 0.02 0.02 0.02 0.02 0.03 0.03 0.02 0.02 0.03 0.04 0.06 0.07 0.05 0.04 0.04 0.03 0.03 0.02 0.02 0.02 0.02 0.02 0.01 0.01 0.01 0.01 0.01 0.02 0.02 0.01 0.02 0.02 0.03 0.03 0.03 0.03
0.19 0.14 0.08 0.05 0.04 0.02 0.01 0.01 0.01 0.01 0.01 0.01 0.01 0.01 0.01 0.01 0.01 0.01 0.02 0.03 0.03 0.04 0.04 0.04 0.03 0.03 0.03 0.04 0.04 0.04 0.03 0.03 0.03 0.03 0.02 0.02 0.02 0.02 0.01 0.01 0.02 0.04 0.05
0.09 0.09 0.07 0.05 0.04 0.03 0.02 0.01 0.01 0.01 0.01 0.01 0.01 0.00 0.01 0.01 0.00 0.00 0.01 0.01 0.02 0.03 0.03 0.03 0.03 0.03 0.03 0.04 0.04 0.04 0.04 0.03 0.02 0.02 0.02 0.02 0.02 0.02 0.02 0.03 0.03 0.03 0.04
0.04 0.04 0.04 0.04 0.03 0.02 0.02 0.02 0.01 0.01 0.01 0.01 0.01 0.01 0.02 0.02 0.01 0.01 0.01 0.01 0.02 0.02 0.02 0.02 0.02 0.02 0.01 0.01 0.01 0.02 0.02 0.02 0.03 0.03 0.04 0.03 0.04 0.05 0.04 0.04 0.04 0.04 0.04
0.04 0.03 0.02 0.02 0.02 0.02 0.02 0.03 0.02 0.01 0.01 0.02 0.02 0.02 0.03 0.02 0.01 0.01 0.01 0.01 0.01 0.01 0.01 0.01 0.01 0.01 0.00 0.01 0.01 0.02 0.02 0.01 0.03 0.04 0.04 0.03 0.04 0.04 0.03 0.03 0.03 0.04 0.04
0.06 0.04 0.03 0.02 0.01 0.01 0.01 0.02 0.04 0.03 0.02 0.02 0.02 0.02 0.02 0.01 0.01 0.02 0.03 0.03 0.02 0.02 0.02 0.01 0.01 0.00 0.00 0.01 0.01 0.01 0.01 0.01 0.01 0.02 0.02 0.02 0.02 0.02 0.03 0.03 0.03 0.03 0.03
0.07 0.05 0.04 0.02 0.02 0.01 0.01 0.01 0.03 0.03 0.03 0.02 0.02 0.02 0.01 0.01 0.01 0.02 0.04 0.03 0.03 0.02 0.02 0.01 0.01 0.01 0.01 0.01 0.01 0.01 0.01 0.01 0.01 0.01 0.02 0.02 0.02 0.03 0.03 0.03 0.03 0.03 0.03
0.08 0.06 0.04 0.03 0.02 0.01 0.01 0.01 0.02 0.02 0.02 0.02 0.02 0.02 0.01 0.02 0.03 0.04 0.05 0.04 0.02 0.02 0.02 0.01 0.01 0.01 0.01 0.01 0.01 0.01 0.01 0.01 0.01 0.01 0.02 0.02 0.02 0.02 0.02 0.02 0.02 0.02 0.03
0.05 0.05 0.04 0.03 0.02 0.02 0.01 0.01 0.01 0.01 0.01 0.01 0.02 0.02 0.02 0.02 0.03 0.04 0.05 0.04 0.03 0.02 0.01 0.01 0.02 0.02 0.02 0.02 0.02 0.02 0.02 0.01 0.01 0.01 0.02 0.02 0.02 0.02 0.02 0.01 0.01 0.02 0.02

GEFSGL_prec_meanprec_384.txt.gz
QPF
0.02 0.02 0.03 0.03 0.03 0.04 0.04 0.05 0.04 0.04 0.03 0.02 0.01 0.01 0.02 0.03 0.04 0.04 0.02 0.02 0.03 0.03 0.04 0.04 0.05 0.06 0.05 0.04 0.03 0.03 0.03 0.03 0.02 0.02 0.02 0.02 0.02 0.02 0.02 0.02 0.03 0.04 0.04
0.02 0.03 0.03 0.03 0.04 0.06 0.06 0.04 0.03 0.04 0.04 0.03 0.02 0.01 0.02 0.03 0.03 0.03 0.02 0.02 0.03 0.03 0.04 0.06 0.06 0.05 0.03 0.02 0.02 0.02 0.02 0.03 0.03 0.03 0.02 0.02 0.02 0.02 0.03 0.03 0.03 0.04 0.05
0.03 0.04 0.04 0.05 0.08 0.07 0.04 0.03 0.04 0.03 0.02 0.02 0.02 0.01 0.02 0.02 0.03 0.03 0.03 0.02 0.02 0.03 0.04 0.03 0.02 0.02 0.02 0.02 0.02 0.01 0.02 0.03 0.03 0.04 0.04 0.03 0.03 0.03 0.03 0.03 0.03 0.04 0.03
0.05 0.05 0.05 0.07 0.08 0.05 0.04 0.04 0.03 0.02 0.01 0.01 0.02 0.03 0.04 0.04 0.03 0.03 0.03 0.02 0.02 0.02 0.02 0.02 0.01 0.01 0.01 0.01 0.02 0.02 0.02 0.02 0.02 0.02 0.02 0.03 0.04 0.04 0.04 0.03 0.03 0.04 0.03
0.04 0.04 0.04 0.05 0.04 0.03 0.04 0.03 0.03 0.02 0.02 0.02 0.02 0.03 0.03 0.03 0.04 0.04 0.04 0.03 0.02 0.02 0.02 0.02 0.02 0.02 0.02 0.02 0.02 0.01 0.02 0.01 0.01 0.02 0.02 0.02 0.04 0.06 0.06 0.05 0.05 0.04 0.05
0.03 0.05 0.06 0.05 0.04 0.03 0.03 0.04 0.03 0.03 0.03 0.02 0.02 0.02 0.02 0.02 0.02 0.03 0.03 0.03 0.02 0.03 0.03 0.03 0.03 0.03 0.03 0.03 0.03 0.02 0.02 0.01 0.01 0.01 0.02 0.02 0.02 0.03 0.05 0.07 0.07 0.08 0.08
0.06 0.07 0.07 0.07 0.05 0.04 0.03 0.03 0.03 0.03 0.03 0.03 0.03 0.03 0.02 0.02 0.02 0.02 0.03 0.03 0.03 0.03 0.04 0.04 0.04 0.03 0.04 0.04 0.04 0.04 0.03 0.02 0.02 0.01 0.01 0.01 0.01 0.02 0.03 0.05 0.07 0.08 0.09
0.05 0.05 0.04 0.04 0.05 0.04 0.03 0.02 0.03 0.03 0.03 0.03 0.04 0.04 0.04 0.03 0.03 0.02 0.02 0.02 0.02 0.02 0.02 0.02 0.03 0.04 0.05 0.05 0.04 0.04 0.03 0.03 0.02 0.02 0.01 0.01 0.01 0.01 0.02 0.02 0.03 0.04 0.05
0.04 0.03 0.03 0.03 0.04 0.04 0.03 0.02 0.03 0.04 0.04 0.02 0.02 0.02 0.02 0.02 0.02 0.02 0.02 0.01 0.01 0.01 0.01 0.01 0.02 0.03 0.04 0.05 0.05 0.04 0.04 0.03 0.03 0.03 0.02 0.01 0.01 0.01 0.02 0.02 0.02 0.03 0.03
0.03 0.03 0.03 0.04 0.04 0.04 0.04 0.04 0.05 0.05 0.04 0.03 0.01 0.01 0.00 0.00 0.01 0.01 0.01 0.02 0.02 0.02 0.02 0.03 0.02 0.03 0.05 0.05 0.05 0.05 0.04 0.03 0.03 0.02 0.02 0.01 0.01 0.02 0.02 0.02 0.02 0.03 0.02
0.05 0.06 0.07 0.08 0.09 0.08 0.07 0.07 0.09 0.10 0.08 0.03 0.01 0.00 0.00 0.00 0.00 0.01 0.01 0.01 0.00 0.00 0.00 0.01 0.01 0.01 0.03 0.04 0.03 0.02 0.04 0.07 0.05 0.03 0.03 0.02 0.01 0.01 0.01 0.02 0.02 0.03 0.02
0.08 0.10 0.11 0.11 0.11 0.11 0.11 0.11 0.10 0.09 0.08 0.05 0.03 0.01 0.01 0.00 0.00 0.00 0.00 0.01 0.01 0.01 0.02 0.02 0.01 0.01 0.01 0.02 0.03 0.03 0.03 0.05 0.06 0.03 0.02 0.02 0.01 0.02 0.02 0.03 0.03 0.03 0.02
0.05 0.07 0.08 0.08 0.07 0.07 0.06 0.06 0.05 0.05 0.04 0.03 0.02 0.02 0.02 0.01 0.01 0.01 0.01 0.01 0.02 0.03 0.04 0.06 0.04 0.02 0.02 0.04 0.04 0.04 0.04 0.03 0.03 0.02 0.01 0.01 0.01 0.02 0.02 0.02 0.02 0.02 0.01
0.01 0.02 0.03 0.04 0.04 0.03 0.03 0.03 0.02 0.02 0.02 0.02 0.02 0.02 0.02 0.02 0.02 0.01 0.01 0.01 0.02 0.03 0.04 0.05 0.04 0.03 0.04 0.05 0.05 0.05 0.05 0.04 0.04 0.03 0.02 0.01 0.01 0.01 0.02 0.02 0.03 0.03 0.02
0.02 0.02 0.02 0.02 0.02 0.02 0.03 0.04 0.04 0.04 0.05 0.05 0.04 0.03 0.02 0.02 0.02 0.02 0.01 0.01 0.02 0.02 0.02 0.02 0.03 0.03 0.04 0.04 0.04 0.03 0.03 0.03 0.03 0.03 0.03 0.02 0.02 0.02 0.02 0.02 0.03 0.03 0.04
0.01 0.01 0.02 0.02 0.03 0.03 0.04 0.04 0.04 0.05 0.06 0.04 0.03 0.02 0.02 0.01 0.02 0.03 0.03 0.03 0.03 0.02 0.02 0.02 0.03 0.03 0.03 0.03 0.03 0.03 0.03 0.03 0.03 0.03 0.04 0.04 0.03 0.03 0.02 0.02 0.02 0.02 0.03
0.01 0.02 0.02 0.04 0.05 0.07 0.07 0.08 0.07 0.06 0.06 0.05 0.04 0.03 0.02 0.02 0.02 0.02 0.03 0.04 0.05 0.05 0.04 0.03 0.03 0.03 0.03 0.04 0.04 0.04 0.04 0.03 0.03 0.03 0.03 0.04 0.04 0.03 0.03 0.03 0.03 0.03 0.03
0.03 0.04 0.04 0.05 0.06 0.08 0.08 0.07 0.05 0.05 0.05 0.05 0.04 0.02 0.02 0.01 0.01 0.01 0.01 0.02 0.03 0.05 0.06 0.06 0.05 0.05 0.05 0.05 0.05 0.05 0.04 0.04 0.03 0.03 0.03 0.03 0.03 0.03 0.03 0.03 0.03 0.03 0.03
0.07 0.08 0.07 0.05 0.06 0.07 0.07 0.05 0.04 0.03 0.02 0.02 0.02 0.01 0.01 0.01 0.01 0.01 0.01 0.02 0.02 0.03 0.04 0.04 0.04 0.05 0.04 0.04 0.04 0.04 0.04 0.04 0.04 0.04 0.03 0.03 0.03 0.04 0.04 0.04 0.03 0.03 0.03
0.07 0.07 0.05 0.04 0.03 0.04 0.03 0.03 0.04 0.03 0.02 0.01 0.01 0.01 0.02 0.02 0.02 0.02 0.02 0.02 0.02 0.03 0.03 0.03 0.03 0.03 0.03 0.03 0.02 0.02 0.02 0.02 0.03 0.03 0.02 0.02 0.02 0.02 0.03 0.04 0.04 0.03 0.02
0.03 0.03 0.02 0.02 0.02 0.02 0.02 0.02 0.02 0.02 0.02 0.02 0.02 0.03 0.02 0.03 0.03 0.03 0.02 0.03 0.03 0.03 0.03 0.02 0.02 0.02 0.02 0.02 0.02 0.02 0.01 0.01 0.01 0.02 0.02 0.01 0.02 0.02 0.01 0.02 0.03 0.03 0.03
0.03 0.03 0.02 0.02 0.03 0.03 0.02 0.02 0.02 0.02 0.02 0.02 0.02 0.03 0.03 0.02 0.03 0.02 0.02 0.02 0.02 0.02 0.02 0.02 0.02 0.02 0.03 0.03 0.02 0.01 0.00 0.00 0.00 0.01 0.01 0.01 0.02 0.01 0.01 0.02 0.02 0.02 0.02
0.04 0.04 0.04 0.03 0.03 0.02 0.02 0.02 0.02 0.02 0.01 0.01 0.02 0.02 0.01 0.01 0.02 0.02 0.02 0.02 0.02 0.02 0.02 0.03 0.03 0.02 0.02 0.01 0.01 0.01 0.01 0.01 0.01 0.01 0.01 0.01 0.02 0.02 0.02 0.02 0.02 0.01 0.01
0.03 0.04 0.05 0.05 0.05 0.03 0.02 0.02 0.02 0.01 0.01 0.01 0.01 0.01 0.01 0.01 0.01 0.01 0.01 0.01 0.02 0.02 0.03 0.03 0.03 0.02 0.02 0.02 0.02 0.01 0.01 0.01 0.01 0.01 0.01 0.02 0.02 0.02 0.02 0.02 0.02 0.02 0.02
0.03 0.04 0.04 0.05 0.06 0.05 0.03 0.02 0.02 0.01 0.01 0.01 0.01 0.01 0.01 0.01 0.01 0.01 0.01 0.01 0.02 0.02 0.02 0.02 0.02 0.02 0.02 0.02 0.01 0.01 0.01 0.01 0.00 0.00 0.01 0.02 0.02 0.02 0.02 0.02 0.02 0.02 0.02
0.03 0.04 0.04 0.04 0.04 0.04 0.03 0.02 0.02 0.01 0.01 0.01 0.01 0.01 0.01 0.01 0.01 0.01 0.01 0.01 0.02 0.03 0.02 0.01 0.01 0.01 0.02 0.01 0.01 0.01 0.01 0.01 0.01 0.01 0.01 0.02 0.02 0.02 0.02 0.02 0.02 0.03 0.03